Location: Casteau
(50.5142°N, 4.0161°E)
Time: 05:13:56
(UTC+00:00)

Cosmos 2278 Rocket - Pass Details

Date: 18 September 2020
Orbit: 841 x 845 km, 71.0° (Epoch: 29 October)

Event Time Altitude Azimuth Distance (km) Brightness Sun altitude
Exits shadow 21:22:06 21° 41° (NE) 1,821 4.0 -30.6°
Drops below altitude 10° 21:23:54 10° 36° (NE) 2,470 4.7 -30.7°
Sets 21:26:23 0° 32° (NNE) 3,409 5.6 -31.0°
